This is the latest recevied weather packets stored in our database for station/object IW3HBX-13. If no packets are shown the sender has not sent any weather packets the latest 10 day(s).
| Time | Temp. | Humidity | Pressure | Rain* | Wind** | Luminosity | Snow |
|---|---|---|---|---|---|---|---|
| 1777820049 | 23.89° C | 42% | 1017.3 hPa | 0 mm | - | 342 W/m² | - |
| 1777819687 | 24.44° C | 41% | 1017.4 hPa | 0 mm | - | 325 W/m² | - |
| 1777819327 | 24.44° C | 41% | 1017.3 hPa | 0 mm | - | 300 W/m² | - |
| 1777818968 | 24.44° C | 40% | 1017.4 hPa | 0 mm | - | 426 W/m² | - |
| 1777818608 | 25° C | 40% | 1017.4 hPa | 0 mm | - | 504 W/m² | - |
| 1777818250 | 25° C | 42% | 1017.6 hPa | 0 mm | - | 527 W/m² | - |
| 1777817890 | 24.44° C | 41% | 1017.7 hPa | 0 mm | - | 559 W/m² | - |
| 1777817527 | 24.44° C | 41% | 1017.6 hPa | 0 mm | - | 463 W/m² | - |
| 1777817168 | 24.44° C | 42% | 1017.6 hPa | 0 mm | - | 379 W/m² | - |
| 1777816448 | 24.44° C | 43% | 1017.7 hPa | 0 mm | - | 490 W/m² | - |
| 1777816088 | 24.44° C | 42% | 1017.8 hPa | 0 mm | - | 553 W/m² | - |
| 1777815727 | 24.44° C | 43% | 1017.8 hPa | 0 mm | - | 520 W/m² | - |
| 1777815369 | 24.44° C | 43% | 1017.8 hPa | 0 mm | - | 464 W/m² | - |
| 1777815007 | 25° C | 40% | 1017.8 hPa | 0 mm | - | 427 W/m² | - |
| 1777814648 | 25° C | 41% | 1018 hPa | 0 mm | - | 553 W/m² | - |
| 1777814287 | 25° C | 40% | 1018 hPa | 0 mm | - | 561 W/m² | - |
| 1777813928 | 25.56° C | 40% | 1018.1 hPa | 0 mm | - | 529 W/m² | - |
| 1777813567 | 25° C | 40% | 1018 hPa | 0 mm | - | 733 W/m² | - |
| 1777812847 | 25.56° C | 39% | 1018.2 hPa | 0 mm | - | 764 W/m² | - |
| 1777812488 | 25° C | 40% | 1018.3 hPa | 0 mm | - | 774 W/m² | - |
| 1777812127 | 25° C | 40% | 1018.3 hPa | 0 mm | - | 781 W/m² | - |
| 1777811771 | 25.56° C | 41% | 1018.3 hPa | 0 mm | - | 811 W/m² | - |
| 1777811407 | 25° C | 42% | 1018.2 hPa | 0 mm | - | 830 W/m² | - |
| 1777811050 | 25° C | 43% | 1018.4 hPa | 0 mm | - | 835 W/m² | - |
| 1777810691 | 25° C | 41% | 1018.3 hPa | 0 mm | - | 698 W/m² | - |
* Rain latest hour (hover to see other rain measurements)
** Current wind speed in m/s (hover to see current wind gust speed)